Regional Weather Roundup
Issued by NWS

Home | Current Version | Previous Version | Graphics & Text | Print | Product List | Glossary On
Versions: 1 2 3 4 5 6 7 8 9 10 11 12 13 14 15 16 17 18 19 20 21 22 23 24 25 26 27 28 29 30 31 32 33 34 35 36 37 38 39 40 41 42 43 44 45 46 47 48 49 50
000
ASUS43 KFSD 242310
RWRSD

WEATHER ROUNDUP FOR SOUTH DAKOTA
NATIONAL WEATHER SERVICE SIOUX FALLS SD
500 PM CST SAT JAN 24 2015

NOTE: "FAIR" INDICATES FEW OR NO CLOUDS BELOW 12,000 FEET WITH NO
SIGNIFICANT WEATHER AND/OR OBSTRUCTIONS TO VISIBILITY.


SDZ001>005-009-010-012>017-250000-
NORTHWEST AND NORTH CENTRAL SOUTH DAKOTA

CITY           SKY/WX    TMP DP  RH WIND       PRES   REMARKS
BUFFALO          N/A     44  34  67 NW40G54   29.73R
FAITH            N/A     45  34  65 NW38G49   29.71R
MOBRIDGE       CLOUDY    41  36  82 NW24G33   29.59R
$$

SDZ012>016-024>037-041>051-057-063-072>074-250000-
SOUTHWEST AND SOUTH CENTRAL SOUTH DAKOTA

CITY           SKY/WX    TMP DP  RH WIND       PRES   REMARKS
RAPID CTY ARPT PTCLDY    45  34  65 NW35G44   29.81R
PIERRE         CLOUDY    49  35  58 NW36G48   29.61R
CUSTER         MIX PCPN  36  30  79 NW18G39   29.85S
ELLSWORTH AFB  PTCLDY    44  35  71 NW30G43   29.80F
PHILIP         CLOUDY    49  35  58 NW31G53   29.70R
PINE RIDGE     LGT RAIN  45  36  70 NW16G24   29.83R
SPEARFISH      FAIR      39  32  75 W21G29    29.89S
WINNER         CLOUDY    49  41  74 W22G30    29.64R
$$

SDZ004>011-016>023-039-040-250000-
NORTHEAST SOUTH DAKOTA

CITY           SKY/WX    TMP DP  RH WIND       PRES   REMARKS
ABERDEEN       CLOUDY    37  36  96 NE3       29.57S
WATERTOWN      MIX PCPN  35  33  92 W5        29.55F
SISSETON         N/A     34  32  92 N7        29.57R WCI  28
$$

SDZ017-020-022-023-036>040-048>070-250000-
SOUTHEAST SOUTH DAKOTA

CITY           SKY/WX    TMP DP  RH WIND       PRES   REMARKS
SIOUX FALLS    LGT RAIN  41  34  76 CALM      29.59S
HURON          CLOUDY    42  37  82 CALM      29.56F
CHAMBERLAIN    CLOUDY    48  37  64 W23       29.60S
MITCHELL       CLOUDY    42  36  79 CALM      29.58F
YANKTON        CLOUDY    46  32  57 SW5       29.62F
$$

ABBREVIATIONS USED IN REMARKS
   TC - TEMPERATURE IN CELSIUS
  WCI - WIND CHILL INDEX
   HX - HEAT INDEX
  VSB - VISIBILITY




USA.gov is the U.S. government's official web portal to all federal, state and local government web resources and services.